When you browse on this site, cookies collect data to enhance your experience and personalize the content and advertising you see.
Visit our Privacy Policy to learn more. By continuing to use the site, you agree to this use of cookies and data.
  • In Germany
  • List of Countries
  • For 7 days
  • Water Temperature
  • Weather Map
  • Weather Widgets
  • user-avatar
    Login

    Hourly Weather Zaranj

    Today, 19 September, Thursday

    Time Temperature Precipitation Wind Pressure Humidity
    00:00 +27°C° 0 mm 3 mps 715 mmHg 13%
    01:00 +27°C° 0 mm 3 mps 715 mmHg 15%
    02:00 +27°C° 0 mm 5 mps 715 mmHg 17%
    03:00 +27°C° 0 mm 6 mps 715 mmHg 19%
    04:00 +27°C° 0 mm 7 mps 715 mmHg 21%
    05:00 +27°C° 0 mm 7 mps 716 mmHg 21%
    06:00 +28°C° 0 mm 7 mps 716 mmHg 21%
    07:00 +28°C° 0 mm 7 mps 717 mmHg 22%
    08:00 +32°C° 0 mm 7 mps 717 mmHg 18%
    09:00 +34°C° 0 mm 7 mps 717 mmHg 15%
    10:00 +38°C° 0 mm 6 mps 717 mmHg 11%
    11:00 +40°C° 0 mm 5 mps 717 mmHg 9%
    12:00 +41°C° 0 mm 4 mps 716 mmHg 7%
    13:00 +43°C° 0 mm 3 mps 716 mmHg 5%
    14:00 +43°C° 0 mm 3 mps 716 mmHg 5%
    15:00 +44°C° 0 mm 3 mps 715 mmHg 4%
    16:00 +44°C° 0 mm 3 mps 715 mmHg 4%
    17:00 +40°C° 0 mm 3 mps 715 mmHg 5%
    18:00 +37°C° 0 mm 3 mps 715 mmHg 6%
    19:00 +35°C° 0 mm 4 mps 715 mmHg 7%
    20:00 +34°C° 0 mm 5 mps 715 mmHg 9%
    21:00 +34°C° 0 mm 5 mps 715 mmHg 12%
    22:00 +34°C° 0 mm 6 mps 714 mmHg 14%
    23:00 +34°C° 0 mm 7 mps 714 mmHg 15%

    Tomorrow, 20 September, Friday

    Time Temperature Precipitation Wind Pressure Humidity
    00:00 +33°C° 0 mm 8 mps 714 mmHg 17%
    01:00 +33°C° 0 mm 8 mps 714 mmHg 18%
    02:00 +32°C° 0 mm 8 mps 714 mmHg 18%
    03:00 +31°C° 0 mm 8 mps 714 mmHg 18%
    04:00 +29°C° 0 mm 8 mps 713 mmHg 17%
    05:00 +31°C° 0 mm 8 mps 714 mmHg 17%
    06:00 +31°C° 0 mm 9 mps 714 mmHg 16%
    07:00 +32°C° 0 mm 10 mps 715 mmHg 15%
    08:00 +34°C° 0 mm 9 mps 715 mmHg 12%
    09:00 +38°C° 0 mm 8 mps 715 mmHg 9%
    10:00 +40°C° 0 mm 8 mps 716 mmHg 7%
    11:00 +41°C° 0 mm 7 mps 715 mmHg 6%
    12:00 +44°C° 0 mm 6 mps 715 mmHg 5%
    13:00 +45°C° 0 mm 5 mps 714 mmHg 4%
    14:00 +46°C° 0 mm 5 mps 714 mmHg 4%
    15:00 +45°C° 0 mm 4 mps 714 mmHg 4%
    16:00 +45°C° 0 mm 4 mps 713 mmHg 4%
    17:00 +40°C° 0 mm 3 mps 713 mmHg 5%
    18:00 +36°C° 0 mm 2 mps 713 mmHg 6%
    19:00 +31°C° 0 mm 1 mps 713 mmHg 7%
    20:00 +33°C° 0 mm 4 mps 713 mmHg 10%
    21:00 +33°C° 0 mm 6 mps 713 mmHg 14%
    22:00 +34°C° 0 mm 8 mps 714 mmHg 17%
    23:00 +33°C° 0 mm 9 mps 713 mmHg 18%

    Day after tomorrow, 21 September, Saturday

    Time Temperature Precipitation Wind Pressure Humidity
    00:00 +33°C° 0 mm 9 mps 713 mmHg 18%
    01:00 +32°C° 0 mm 9 mps 713 mmHg 19%
    02:00 +31°C° 0 mm 9 mps 713 mmHg 21%
    03:00 +29°C° 0 mm 8 mps 713 mmHg 23%
    04:00 +29°C° 0 mm 8 mps 713 mmHg 24%
    05:00 +29°C° 0 mm 7 mps 713 mmHg 24%
    06:00 +29°C° 0 mm 7 mps 714 mmHg 24%
    07:00 +29°C° 0 mm 6 mps 714 mmHg 23%
    08:00 +32°C° 0 mm 6 mps 714 mmHg 19%
    09:00 +35°C° 0 mm 5 mps 714 mmHg 14%
    10:00 +39°C° 0 mm 5 mps 715 mmHg 10%
    11:00 +40°C° 0 mm 4 mps 714 mmHg 8%
    12:00 +42°C° 0 mm 3 mps 714 mmHg 7%
    13:00 +42°C° 0 mm 1 mps 714 mmHg 5%
    14:00 +43°C° 0 mm 1 mps 713 mmHg 5%
    15:00 +43°C° 0 mm 1 mps 713 mmHg 5%
    16:00 +43°C° 0 mm 1 mps 712 mmHg 5%
    17:00 +40°C° 0 mm 2 mps 712 mmHg 6%
    18:00 +37°C° 0 mm 2 mps 712 mmHg 7%
    19:00 +32°C° 0 mm 2 mps 712 mmHg 9%
    20:00 +31°C° 0 mm 2 mps 712 mmHg 9%
    21:00 +31°C° 0 mm 2 mps 712 mmHg 10%
    22:00 +30°C° 0 mm 2 mps 712 mmHg 10%
    23:00 +29°C° 0 mm 2 mps 712 mmHg 11%

    22 September, Sunday

    Time Temperature Precipitation Wind Pressure Humidity
    00:00 +28°C° 0 mm 2 mps 712 mmHg 12%
    01:00 +28°C° 0 mm 2 mps 712 mmHg 12%
    02:00 +27°C° 0 mm 2 mps 712 mmHg 14%
    03:00 +26°C° 0 mm 2 mps 712 mmHg 15%
    04:00 +25°C° 0 mm 1 mps 712 mmHg 17%
    05:00 +27°C° 0 mm 2 mps 713 mmHg 17%
    06:00 +28°C° 0 mm 2 mps 713 mmHg 17%
    07:00 +30°C° 0 mm 2 mps 714 mmHg 17%
    08:00 +34°C° 0 mm 2 mps 715 mmHg 14%
    09:00 +37°C° 0 mm 2 mps 715 mmHg 11%
    10:00 +39°C° 0 mm 2 mps 716 mmHg 8%
    11:00 +41°C° 0 mm 1 mps 715 mmHg 7%
    12:00 +42°C° 0 mm 1 mps 715 mmHg 6%
    13:00 +43°C° 0 mm 1 mps 714 mmHg 5%
    14:00 +44°C° 0 mm 1 mps 714 mmHg 5%
    15:00 +45°C° 0 mm 2 mps 714 mmHg 4%
    16:00 +45°C° 0 mm 2 mps 714 mmHg 4%
    17:00 +42°C° 0 mm 6 mps 714 mmHg 11%
    18:00 +39°C° 0 mm 9 mps 714 mmHg 18%
    19:00 +36°C° 0 mm 13 mps 714 mmHg 25%
    20:00 +33°C° 0 mm 14 mps 715 mmHg 28%
    21:00 +31°C° 0 mm 15 mps 715 mmHg 32%
    22:00 +28°C° 0 mm 16 mps 716 mmHg 35%
    23:00 +27°C° 0 mm 15 mps 716 mmHg 36%

    23 September, Monday

    Time Temperature Precipitation Wind Pressure Humidity
    00:00 +26°C° 0 mm 15 mps 716 mmHg 38%
    01:00 +24°C° 0 mm 14 mps 716 mmHg 39%
    02:00 +24°C° 0 mm 13 mps 716 mmHg 40%
    03:00 +23°C° 0 mm 12 mps 716 mmHg 41%
    04:00 +22°C° 0 mm 11 mps 716 mmHg 43%
    05:00 +23°C° 0 mm 10 mps 716 mmHg 42%
    06:00 +23°C° 0 mm 9 mps 717 mmHg 41%
    07:00 +23°C° 0 mm 9 mps 717 mmHg 41%
    08:00 +26°C° 0 mm 9 mps 717 mmHg 36%
    09:00 +28°C° 0 mm 9 mps 718 mmHg 30%
    10:00 +31°C° 0 mm 8 mps 718 mmHg 25%
    11:00 +33°C° 0 mm 7 mps 717 mmHg 22%
    12:00 +35°C° 0 mm 7 mps 717 mmHg 19%
    13:00 +38°C° 0 mm 6 mps 716 mmHg 16%
    14:00 +38°C° 0 mm 4 mps 716 mmHg 15%
    15:00 +38°C° 0 mm 3 mps 715 mmHg 14%
    16:00 +39°C° 0 mm 2 mps 715 mmHg 12%
    17:00 +36°C° 0 mm 2 mps 715 mmHg 15%
    18:00 +32°C° 0 mm 2 mps 715 mmHg 19%
    19:00 +28°C° 0 mm 2 mps 714 mmHg 22%
    20:00 +28°C° 0 mm 3 mps 715 mmHg 24%
    21:00 +28°C° 0 mm 3 mps 715 mmHg 27%
    22:00 +28°C° 0 mm 4 mps 715 mmHg 29%
    23:00 +28°C° 0 mm 5 mps 715 mmHg 30%

    24 September, Tuesday

    Time Temperature Precipitation Wind Pressure Humidity
    00:00 +28°C° 0 mm 7 mps 715 mmHg 31%
    01:00 +28°C° 0 mm 8 mps 715 mmHg 32%
    02:00 +27°C° 0 mm 9 mps 715 mmHg 32%
    03:00 +27°C° 0 mm 9 mps 715 mmHg 32%
    04:00 +26°C° 0 mm 10 mps 716 mmHg 32%
    05:00 +26°C° 0 mm 10 mps 716 mmHg 31%
    06:00 +27°C° 0 mm 11 mps 716 mmHg 30%
    07:00 +27°C° 0 mm 11 mps 717 mmHg 29%
    08:00 +29°C° 0 mm 11 mps 717 mmHg 25%
    09:00 +32°C° 0 mm 12 mps 718 mmHg 21%
    10:00 +34°C° 0 mm 12 mps 718 mmHg 17%
    11:00 +37°C° 0 mm 11 mps 717 mmHg 16%
    12:00 +38°C° 0 mm 11 mps 717 mmHg 14%
    13:00 +40°C° 0 mm 10 mps 716 mmHg 12%
    14:00 +40°C° 0 mm 10 mps 716 mmHg 12%
    15:00 +40°C° 0 mm 10 mps 716 mmHg 11%
    16:00 +42°C° 0 mm 10 mps 715 mmHg 11%
    17:00 +38°C° 0 mm 11 mps 715 mmHg 13%
    18:00 +36°C° 0 mm 11 mps 715 mmHg 16%
    19:00 +33°C° 0 mm 11 mps 715 mmHg 18%
    20:00 +32°C° 0 mm 11 mps 716 mmHg 19%
    21:00 +31°C° 0 mm 11 mps 716 mmHg 19%
    22:00 +29°C° 0 mm 11 mps 716 mmHg 20%
    23:00 +28°C° 0 mm 11 mps 716 mmHg 21%
    Show more